Weather History for KDVT - January, 2012

Change the Weather History Date:

Tuesday, January 3, 2012

  Actual Average Record
Temperature  
Mean Temperature 62 °F -  
Max Temperature 72 °F 62 °F 73 °F (2001)
Min Temperature 52 °F 42 °F 28 °F (2015)
Degree Days  
Heating Degree Days 3    
Growing Degree Days 12 (Base 50)    
Moisture  
Dew Point 27 °F    
Average Humidity 29    
Maximum Humidity 47    
Minimum Humidity 18    
Precipitation  
Precipitation 0.00 in - - ()
Sea Level Pressure  
Sea Level Pressure 30.21 in    
Wind  
Wind Speed 3 mph (NE)    
Max Wind Speed 9 mph    
Max Gust Speed -    
Visibility 10 miles    
Events      
Averages and records for this station are not official NWS values.
T = Trace of Precipitation, MM = Missing Value Source: NWS Daily Summary

Daily Weather History Graph

Daily Weather History Graph

Search for Another Location

Airport or City:

Trip Planner

Search our weather history database for the weather conditions in past years. The results will help you decide how hot, cold, wet, or windy it might be!

Date:

Astronomy

Jan. 03, 2012 Rise Set
Actual Time 7:33 AM MST 5:32 PM MST
Civil Twilight 7:05 AM MST 5:59 PM MST
Nautical Twilight 6:34 AM MST 6:30 PM MST
Astronomical Twilight 6:04 AM MST 7:00 PM MST
Moon 1:18 PM MST (1/3) 2:32 AM MST (1/3)
Length of Visible Light 10h 53m
Length of Day
9h 58m
Waxing Gibbous, 73% of the Moon is Illuminated
Jan 3
Waxing Gibbous
Jan 9
Full
Jan 16
Last Quarter
Jan 23
New
Jan 30
First Quarter

Hourly Weather History & Observations

Time (MST) Temp. Dew Point Humidity Pressure Visibility Wind Dir Wind Speed Gust Speed Precip Events Conditions
12:53 AM 61.0 °F 25.0 °F 25% 30.21 in 10.0 mi NE 4.6 mph - N/A   Clear
1:53 AM 57.0 °F 25.0 °F 29% 30.22 in 10.0 mi Calm Calm - N/A   Clear
3:53 AM 63.0 °F 23.0 °F 22% 30.20 in 10.0 mi Variable 3.5 mph - N/A   Clear
5:53 AM 60.1 °F 24.1 °F 25% 30.22 in 10.0 mi East 4.6 mph - N/A   Clear
6:53 AM 52.0 °F 26.1 °F 37% 30.24 in 10.0 mi North 3.5 mph - N/A   Clear
7:53 AM 52.0 °F 26.1 °F 37% 30.25 in 10.0 mi ENE 3.5 mph - N/A   Clear
8:53 AM 57.9 °F 27.0 °F 31% 30.26 in 10.0 mi East 4.6 mph - N/A   Clear
9:53 AM 63.0 °F 28.0 °F 27% 30.27 in 10.0 mi Calm Calm - N/A   Clear
10:53 AM 64.9 °F 27.0 °F 24% 30.26 in 10.0 mi SSW 4.6 mph - N/A   Clear
11:53 AM 66.0 °F 27.0 °F 23% 30.22 in 10.0 mi WSW 3.5 mph - N/A   Clear
12:53 PM 69.1 °F 26.1 °F 20% 30.19 in 10.0 mi Calm Calm - N/A   Clear
1:53 PM 69.1 °F 26.1 °F 20% 30.17 in 10.0 mi SW 3.5 mph - N/A   Clear
2:53 PM 71.1 °F 27.0 °F 19% 30.16 in 10.0 mi Calm Calm - N/A   Clear
3:53 PM 72.0 °F 26.1 °F 18% 30.14 in 10.0 mi Calm Calm - N/A   Clear
4:53 PM 71.1 °F 27.0 °F 19% 30.16 in 10.0 mi West 3.5 mph - N/A   Clear
5:53 PM 66.9 °F 28.0 °F 23% 30.16 in 10.0 mi Calm Calm - N/A   Clear
6:53 PM 60.1 °F 28.9 °F 31% 30.18 in 10.0 mi Calm Calm - N/A   Clear
8:53 PM 57.0 °F 32.0 °F 39% 30.20 in 10.0 mi Calm Calm - N/A   Clear
9:53 PM 53.1 °F 33.1 °F 47% 30.21 in 10.0 mi Calm Calm - N/A   Clear
10:53 PM 57.0 °F 32.0 °F 39% 30.20 in 10.0 mi NE 9.2 mph - N/A   Clear
11:53 PM 52.0 °F 32.0 °F 47% 30.20 in 10.0 mi Calm Calm - N/A   Clear